Capitol Logistics 81


YSSY
Kingsford Smith International Airport
Sydney, AU
PHNL
Daniel K Inouye International Airport
Honolulu, US

Activity Log

Date Flight Route Aircraft Duration
12/01/2019 CPX81 ENTRA JORDY A579 CARRP OPACA4 B744 9h 16m
04/25/2019 CPX81 nobar a579 carrp opaca4 B744 8h 51m

Route Details

Aircraft Information
Primary: Boeing 747-400BCF
Backup: Boeing 777-200LRF
Route Data
Distance: 4417nm
Sched. Duration: 10h 30m
Avg. Duration: 8h 83m (-146m)
Times Flown: 2
Recm'd Route: TESAT G595 GUTIV DUDEP NATLI A579 UBLIN A579 VIRAR 23S170E 18S175E 15S178E 13S180E IDEMU A579 CUFFY A579 CHEEM A579 CARRP
Planned Altitude: 31,000ft
Origin Wx: YSSY 311130Z 09007KT 9999 FEW018 SCT055 22/18 Q1018 NOSIG
Dest. Wx: PHNL 311153Z 08011KT 10SM FEW025 FEW035 BKN210 22/17 A3002 RMK AO2 SLP166 T02220172 10233 20222 58017
Notes:

Financial History
Total Freight: 311,453lbs
Average Load: 155,727lbs/flt
Fuel Used: 377,183lbs
Avg. Fuel Used: 188,592lbs/flt
Fuel Expense: $301,746
Avg. Fuel Expense: $150,873
Avg. Fuel Cost: $0.80/lbs
Total Gross Income: $1,077,984
Pilot Pay: $388
Total Expenses: $116,526
Total Revenue: $655,990
Average Revenue: $538,991.97